Tallahassee, FL

7:41 AM EDT on August 19, 2017 (GMT -0400)
Tallahassee Regional

Weather History for KTLH - February, 2014

Change the Weather History Date:

Friday, February 14, 2014

  Actual Average Record
Temperature  
Mean Temperature 48 °F 54 °F  
Max Temperature 65 °F 67 °F 86 °F (1932)
Min Temperature 30 °F 42 °F 13 °F (1899)
Degree Days  
Heating Degree Days 17    
Month to date heating degree days 124  
Since 1 July heating degree days 1040  
Cooling Degree Days 0    
Month to date cooling degree days 8  
Year to date cooling degree days 10  
Moisture  
Dew Point 36 °F    
Average Humidity 61    
Maximum Humidity 85    
Minimum Humidity 36    
Precipitation  
Precipitation 0.00 in 0.16 in 2.82 in (1997)
Month to date precipitation 1.57 2.22  
Year to date precipitation 5.24 6.56  
Sea Level Pressure  
Sea Level Pressure 29.97 in    
Wind  
Wind Speed 5 mph (SSW)    
Max Wind Speed 18 mph    
Max Gust Speed 24 mph    
Visibility 10 miles    
Events Fog    
T = Trace of Precipitation, MM = Missing Value Source: NWS Daily Summary

Daily Weather History Graph

Daily Weather History Graph

Search for Another Location

Airport or City:

Trip Planner

Search our weather history database for the weather conditions in past years. The results will help you decide how hot, cold, wet, or windy it might be!

Date:

Astronomy

Feb. 14, 2014 Rise Set
Actual Time 7:18 AM EST 6:24 PM EST
Civil Twilight 6:54 AM EST 6:49 PM EST
Nautical Twilight 6:25 AM EST 7:17 PM EST
Astronomical Twilight 5:57 AM EST 7:45 PM EST
Moon 6:24 PM EST (2/14) 6:47 AM EST (2/14)
Length of Visible Light 11h 55m
Length of Day
11h 06m
Full, 100% of the Moon is Illuminated
Feb 14
Full
Feb 14
Full
Feb 22
Last Quarter
Mar 1
New
Mar 8
First Quarter

Hourly Weather History & Observations

Time (EST) Temp. Dew Point Humidity Pressure Visibility Wind Dir Wind Speed Gust Speed Precip Events Conditions
12:53 AM 36.0 °F 30.0 °F 79% 30.00 in 10.0 mi Calm Calm - N/A   Clear
1:53 AM 35.1 °F 30.9 °F 85% 29.99 in 10.0 mi Calm Calm - N/A   Clear
2:53 AM 32.0 °F 28.0 °F 85% 29.98 in 10.0 mi Calm Calm - N/A   Clear
3:53 AM 32.0 °F 28.0 °F 85% 29.98 in 9.0 mi Calm Calm - N/A   Clear
4:53 AM 30.9 °F 27.0 °F 85% 30.00 in 10.0 mi Calm Calm - N/A   Clear
5:53 AM 30.0 °F 25.0 °F 82% 30.02 in 10.0 mi Calm Calm - N/A Fog Patches of Fog
6:53 AM 30.0 °F 27.0 °F 88% 30.04 in 10.0 mi Calm Calm - N/A   Clear
7:53 AM 32.0 °F 27.0 °F 82% 30.05 in 10.0 mi Calm Calm - N/A   Clear
8:53 AM 39.0 °F 34.0 °F 82% 30.05 in 10.0 mi Calm Calm - N/A   Clear
9:53 AM 48.9 °F 37.9 °F 66% 30.06 in 10.0 mi Calm Calm - N/A   Partly Cloudy
10:53 AM 55.9 °F 37.0 °F 49% 30.05 in 10.0 mi WNW 3.5 mph - N/A   Partly Cloudy
11:53 AM 59.0 °F 34.0 °F 39% 30.03 in 10.0 mi WSW 9.2 mph - N/A   Partly Cloudy
12:53 PM 61.0 °F 35.1 °F 38% 29.99 in 10.0 mi WSW 8.1 mph - N/A   Partly Cloudy
1:53 PM 63.0 °F 36.0 °F 37% 29.94 in 10.0 mi SSW 8.1 mph 17.3 mph N/A   Mostly Cloudy
2:53 PM 64.9 °F 37.0 °F 36% 29.94 in 10.0 mi WSW 12.7 mph 21.9 mph N/A   Mostly Cloudy
3:53 PM 64.0 °F 41.0 °F 43% 29.92 in 10.0 mi South 15.0 mph 20.7 mph N/A   Mostly Cloudy
4:53 PM 62.1 °F 43.0 °F 50% 29.93 in 10.0 mi SSW 11.5 mph - N/A   Mostly Cloudy
5:53 PM 60.1 °F 43.0 °F 53% 29.94 in 10.0 mi SSW 11.5 mph 17.3 mph N/A   Mostly Cloudy
6:53 PM 55.9 °F 44.1 °F 64% 29.94 in 10.0 mi South 6.9 mph - N/A   Scattered Clouds
7:53 PM 53.1 °F 45.0 °F 74% 29.93 in 10.0 mi South 4.6 mph - N/A   Partly Cloudy
8:53 PM 52.0 °F 46.0 °F 80% 29.91 in 10.0 mi South 5.8 mph - N/A   Partly Cloudy
9:53 PM 51.1 °F 46.0 °F 83% 29.91 in 10.0 mi SSW 3.5 mph - N/A   Mostly Cloudy
10:53 PM 54.0 °F 46.9 °F 77% 29.89 in 10.0 mi South 5.8 mph - N/A   Mostly Cloudy
11:53 PM 54.0 °F 46.9 °F 77% 29.84 in 10.0 mi South 9.2 mph - N/A   Clear